| time (UTC) | temp F | wind direction | speed MPH | gust MPH | rain 1hr in | rain 24hr in | rain mn in | humidity % | barometer mb |
| 20260507051326 | 43 | 130 | 0.0 | 0.0 | 0.00 | 0.00 | 0.00 | 68 | 1012.3 |
| 20260507050822 | 43 | 130 | 0.0 | 0.0 | 0.00 | 0.00 | 0.00 | 68 | 1012.2 |
| 20260507050319 | 43 | 130 | 0.0 | 0.0 | 0.00 | 0.00 | 0.00 | 68 | 1012.3 |
| 20260507045816 | 43 | 130 | 0.0 | 0.0 | 0.00 | 0.00 | 0.00 | 67 | 1012.2 |
| 20260507045312 | 43 | 135 | 0.0 | 0.0 | 0.00 | 0.00 | 0.00 | 67 | 1012.2 |
| 20260507044809 | 43 | 124 | 0.0 | 0.0 | 0.00 | 0.00 | 0.00 | 67 | 1012.2 |
| 20260507044306 | 43 | 128 | 0.0 | 0.0 | 0.00 | 0.00 | 0.00 | 66 | 1012.3 |
| 20260507043802 | 43 | 128 | 0.0 | 0.0 | 0.00 | 0.00 | 0.00 | 65 | 1012.3 |
| 20260507043259 | 44 | 128 | 0.0 | 0.0 | 0.00 | 0.00 | 0.00 | 64 | 1012.2 |
| 20260507042755 | 44 | 128 | 0.0 | 0.0 | 0.00 | 0.00 | 0.00 | 64 | 1012.3 |
| 20260507042250 | 44 | 128 | 0.0 | 0.0 | 0.00 | 0.00 | 0.00 | 63 | 1012.2 |
| 20260507041748 | 44 | 130 | 0.0 | 0.0 | 0.00 | 0.00 | 0.00 | 63 | 1012.5 |
| 20260507041244 | 44 | 126 | 0.0 | 0.0 | 0.00 | 0.00 | 0.00 | 63 | 1012.4 |
| 20260507040741 | 44 | 124 | 0.0 | 0.0 | 0.00 | 0.00 | 0.00 | 62 | 1012.3 |
| 20260507040237 | 44 | 133 | 0.0 | 0.0 | 0.00 | 0.00 | 0.00 | 62 | 1012.1 |
| 20260507035734 | 44 | 130 | 0.0 | 0.0 | 0.00 | 0.00 | 0.00 | 61 | 1012.4 |
| 20260507035229 | 45 | 128 | 0.0 | 0.0 | 0.00 | 0.00 | 0.00 | 61 | 1012.3 |
| 20260507034727 | 45 | 131 | 0.0 | 0.0 | 0.00 | 0.00 | 0.00 | 59 | 1012.4 |
| 20260507034223 | 45 | 134 | 0.0 | 0.0 | 0.00 | 0.00 | 0.00 | 57 | 1012.3 |
| 20260507033722 | 46 | 132 | 0.0 | 0.0 | 0.00 | 0.00 | 0.00 | 57 | 1012.4 |
| 20260507033219 | 46 | 132 | 0.0 | 0.0 | 0.00 | 0.00 | 0.00 | 56 | 1012.3 |
| 20260507032717 | 46 | 126 | 0.0 | 0.0 | 0.00 | 0.00 | 0.00 | 56 | 1012.3 |
| 20260507032212 | 46 | 131 | 0.0 | 0.0 | 0.00 | 0.00 | 0.00 | 56 | 1012.5 |
| 20260507031709 | 47 | 123 | 0.0 | 0.0 | 0.00 | 0.00 | 0.00 | 55 | 1012.4 |
| 20260507031206 | 47 | 130 | 0.0 | 0.0 | 0.00 | 0.00 | 0.00 | 54 | 1012.5 |
| 20260507030703 | 47 | 143 | 0.0 | 0.0 | 0.00 | 0.00 | 0.00 | 54 | 1012.6 |
| 20260507030200 | 47 | 137 | 0.0 | 0.0 | 0.00 | 0.00 | 0.00 | 53 | 1012.6 |
| 20260507025657 | 48 | 131 | 0.0 | 0.0 | 0.00 | 0.00 | 0.00 | 53 | 1012.4 |
| 20260507025154 | 48 | 141 | 0.0 | 0.0 | 0.00 | 0.00 | 0.00 | 51 | 1012.4 |
| 20260507024652 | 48 | 133 | 0.0 | 0.0 | 0.00 | 0.00 | 0.00 | 51 | 1012.5 |
| 20260507024149 | 48 | 135 | 0.0 | 0.0 | 0.00 | 0.00 | 0.00 | 52 | 1012.3 |
| 20260507023644 | 48 | 134 | 0.0 | 0.0 | 0.00 | 0.00 | 0.00 | 51 | 1012.4 |
| 20260507023142 | 48 | 130 | 0.0 | 0.0 | 0.00 | 0.00 | 0.00 | 51 | 1012.2 |
| 20260507022639 | 48 | 133 | 0.0 | 0.0 | 0.00 | 0.00 | 0.00 | 51 | 1012.3 |
| 20260507022135 | 48 | 123 | 0.0 | 0.0 | 0.00 | 0.00 | 0.00 | 50 | 1012.4 |
| 20260507021631 | 48 | 161 | 1.0 | 1.0 | 0.00 | 0.00 | 0.00 | 50 | 1012.2 |
| 20260507021126 | 48 | 141 | 0.0 | 1.0 | 0.00 | 0.00 | 0.00 | 49 | 1012.4 |
| 20260507020625 | 49 | 144 | 0.0 | 0.0 | 0.00 | 0.00 | 0.00 | 51 | 1012.1 |
| 20260507020121 | 49 | 132 | 0.0 | 0.0 | 0.00 | 0.00 | 0.00 | 50 | 1012.2 |
| 20260507015620 | 49 | 144 | 0.0 | 0.0 | 0.00 | 0.00 | 0.00 | 48 | 1012.1 |
| 20260507015117 | 49 | 140 | 0.0 | 0.0 | 0.00 | 0.00 | 0.00 | 49 | 1011.9 |
| 20260507014613 | 49 | 147 | 0.0 | 0.0 | 0.00 | 0.00 | 0.00 | 48 | 1012.0 |
| 20260507014109 | 49 | 125 | 0.0 | 0.0 | 0.00 | 0.00 | 0.00 | 47 | 1012.1 |
| 20260507013606 | 49 | 206 | 1.0 | 1.0 | 0.00 | 0.00 | 0.00 | 47 | 1011.9 |
| 20260507013103 | 49 | 137 | 0.0 | 0.0 | 0.00 | 0.00 | 0.00 | 47 | 1012.0 |
| 20260507012600 | 50 | 105 | 0.0 | 1.0 | 0.00 | 0.00 | 0.00 | 47 | 1011.9 |
| 20260507012056 | 50 | 137 | 0.0 | 0.0 | 0.00 | 0.00 | 0.00 | 47 | 1012.2 |
| 20260507011554 | 50 | 140 | 1.0 | 1.0 | 0.00 | 0.00 | 0.00 | 46 | 1011.9 |
| 20260507011050 | 50 | 175 | 1.0 | 1.0 | 0.00 | 0.00 | 0.00 | 46 | 1011.9 |
| 20260507010544 | 50 | 130 | 0.0 | 0.0 | 0.00 | 0.00 | 0.00 | 47 | 1012.1 |
| 20260507010041 | 50 | 194 | 0.0 | 1.0 | 0.00 | 0.00 | 0.00 | 47 | 1011.9 |
| 20260507005539 | 50 | 249 | 1.0 | 1.0 | 0.00 | 0.00 | 0.00 | 46 | 1011.9 |
| 20260507005034 | 50 | 158 | 0.0 | 1.0 | 0.00 | 0.00 | 0.00 | 47 | 1011.8 |
| 20260507004532 | 50 | 266 | 0.0 | 0.0 | 0.00 | 0.00 | 0.00 | 46 | 1011.9 |
| 20260507004029 | 50 | 142 | 1.0 | 1.0 | 0.00 | 0.00 | 0.00 | 45 | 1011.9 |
| 20260507003525 | 50 | 210 | 1.0 | 2.0 | 0.00 | 0.00 | 0.00 | 45 | 1011.8 |
| 20260507003020 | 50 | 160 | 0.0 | 0.0 | 0.00 | 0.00 | 0.00 | 45 | 1011.9 |
| 20260507002516 | 51 | 139 | 0.0 | 0.0 | 0.00 | 0.00 | 0.00 | 44 | 1011.6 |
| 20260507002013 | 51 | 137 | 0.0 | 0.0 | 0.00 | 0.00 | 0.00 | 47 | 1011.6 |
| 20260507001509 | 51 | 178 | 1.0 | 2.0 | 0.00 | 0.00 | 0.00 | 44 | 1011.6 |
| 20260507001007 | 51 | 156 | 1.0 | 1.0 | 0.00 | 0.00 | 0.00 | 45 | 1011.5 |
| 20260507000502 | 51 | 161 | 1.0 | 1.0 | 0.00 | 0.00 | 0.00 | 44 | 1011.4 |
| 20260506235958 | 51 | 147 | 2.0 | 2.0 | 0.00 | 0.00 | 0.00 | 44 | 1011.4 |
| 20260506235456 | 51 | 155 | 1.0 | 2.0 | 0.00 | 0.00 | 0.00 | 43 | 1011.6 |
| 20260506234952 | 51 | 200 | 3.0 | 3.0 | 0.00 | 0.00 | 0.00 | 43 | 1011.5 |
| 20260506234449 | 52 | 130 | 0.0 | 1.0 | 0.00 | 0.00 | 0.00 | 44 | 1011.5 |
| 20260506233947 | 52 | 250 | 2.0 | 2.0 | 0.00 | 0.00 | 0.00 | 42 | 1011.5 |
| 20260506233443 | 52 | 229 | 3.0 | 5.0 | 0.00 | 0.00 | 0.00 | 42 | 1011.8 |
| 20260506232940 | 52 | 249 | 3.0 | 3.0 | 0.00 | 0.00 | 0.00 | 42 | 1011.7 |
| 20260506232436 | 52 | 181 | 2.0 | 2.0 | 0.00 | 0.00 | 0.00 | 42 | 1011.1 |
| 20260506231932 | 52 | 242 | 1.0 | 1.0 | 0.00 | 0.00 | 0.00 | 42 | 1011.4 |
| 20260506231429 | 53 | 158 | 2.0 | 3.0 | 0.00 | 0.00 | 0.00 | 42 | 1011.1 |
| 20260506230926 | 53 | 177 | 0.0 | 1.0 | 0.00 | 0.00 | 0.00 | 44 | 1011.2 |
| 20260506230423 | 53 | 150 | 1.0 | 2.0 | 0.00 | 0.00 | 0.00 | 43 | 1011.6 |
| 20260506225919 | 53 | 136 | 3.0 | 5.0 | 0.00 | 0.00 | 0.00 | 42 | 1011.4 |
| 20260506225417 | 53 | 221 | 3.0 | 3.0 | 0.00 | 0.00 | 0.00 | 41 | 1011.2 |
| 20260506224914 | 53 | 172 | 4.0 | 5.0 | 0.00 | 0.00 | 0.00 | 40 | 1011.4 |
| 20260506224411 | 54 | 164 | 1.0 | 1.0 | 0.00 | 0.00 | 0.00 | 40 | 1011.4 |
| 20260506223907 | 55 | 175 | 5.0 | 7.0 | 0.00 | 0.00 | 0.00 | 39 | 1011.5 |
| 20260506223403 | 55 | 228 | 3.0 | 3.0 | 0.00 | 0.00 | 0.00 | 39 | 1011.5 |
| 20260506222900 | 55 | 168 | 1.0 | 1.0 | 0.00 | 0.00 | 0.00 | 40 | 1011.6 |
| 20260506222356 | 55 | 181 | 3.0 | 3.0 | 0.00 | 0.00 | 0.00 | 39 | 1011.4 |
| 20260506221854 | 56 | 249 | 5.0 | 7.0 | 0.00 | 0.00 | 0.00 | 38 | 1011.1 |
| 20260506221351 | 57 | 177 | 2.0 | 2.0 | 0.00 | 0.00 | 0.00 | 38 | 1011.5 |
| 20260506220848 | 55 | 282 | 3.0 | 5.0 | 0.00 | 0.00 | 0.00 | 39 | 1011.5 |
| 20260506220343 | 55 | 192 | 4.0 | 7.0 | 0.00 | 0.00 | 0.00 | 39 | 1011.2 |
| 20260506215841 | 55 | 142 | 1.0 | 2.0 | 0.00 | 0.00 | 0.00 | 41 | 1011.2 |
| 20260506215336 | 56 | 212 | 1.0 | 2.0 | 0.00 | 0.00 | 0.00 | 39 | 1011.5 |
| 20260506214833 | 55 | 240 | 3.0 | 5.0 | 0.00 | 0.00 | 0.00 | 39 | 1011.2 |
| 20260506214329 | 56 | 323 | 3.0 | 3.0 | 0.00 | 0.00 | 0.00 | 39 | 1011.4 |
| 20260506213828 | 56 | 193 | 3.0 | 3.0 | 0.00 | 0.00 | 0.00 | 38 | 1011.2 |
| 20260506213325 | 56 | 227 | 3.0 | 5.0 | 0.00 | 0.00 | 0.00 | 38 | 1011.4 |
| 20260506212822 | 56 | 250 | 2.0 | 2.0 | 0.00 | 0.00 | 0.00 | 38 | 1011.4 |
| 20260506212317 | 56 | 204 | 3.0 | 6.0 | 0.00 | 0.00 | 0.00 | 39 | 1011.2 |
| 20260506211813 | 56 | 227 | 2.0 | 2.0 | 0.00 | 0.00 | 0.00 | 38 | 1011.1 |
| 20260506211309 | 56 | 259 | 3.0 | 3.0 | 0.00 | 0.00 | 0.00 | 37 | 1011.5 |
| 20260506210807 | 57 | 185 | 0.0 | 1.0 | 0.00 | 0.00 | 0.00 | 39 | 1011.4 |
| 20260506210303 | 57 | 237 | 3.0 | 5.0 | 0.00 | 0.00 | 0.00 | 37 | 1011.5 |
| 20260506205800 | 57 | 45 | 1.0 | 1.0 | 0.00 | 0.00 | 0.00 | 39 | 1011.6 |
| 20260506205256 | 56 | 214 | 3.0 | 3.0 | 0.00 | 0.00 | 0.00 | 36 | 1011.2 |
| 20260506204753 | 57 | 137 | 2.0 | 2.0 | 0.00 | 0.00 | 0.00 | 38 | 1011.4 |
| 20260506204251 | 56 | 320 | 3.0 | 6.0 | 0.00 | 0.00 | 0.00 | 39 | 1011.4 |
| 20260506203748 | 55 | 278 | 3.0 | 3.0 | 0.00 | 0.00 | 0.00 | 38 | 1011.4 |
| 20260506203245 | 56 | 207 | 1.0 | 2.0 | 0.00 | 0.00 | 0.00 | 38 | 1011.2 |
| 20260506202742 | 56 | 243 | 1.0 | 2.0 | 0.00 | 0.00 | 0.00 | 38 | 1011.6 |
| 20260506202239 | 56 | 210 | 3.0 | 3.0 | 0.00 | 0.00 | 0.00 | 37 | 1011.4 |
| 20260506201736 | 55 | 343 | 3.0 | 5.0 | 0.00 | 0.00 | 0.00 | 38 | 1011.6 |
| 20260506201232 | 57 | 254 | 3.0 | 6.0 | 0.00 | 0.00 | 0.00 | 35 | 1011.6 |
| 20260506200729 | 58 | 181 | 3.0 | 6.0 | 0.00 | 0.00 | 0.00 | 36 | 1012.0 |
| 20260506200226 | 58 | 206 | 2.0 | 3.0 | 0.00 | 0.00 | 0.00 | 35 | 1011.7 |
| 20260506195722 | 57 | 270 | 3.0 | 3.0 | 0.00 | 0.00 | 0.00 | 35 | 1011.6 |
| 20260506195219 | 56 | 152 | 2.0 | 2.0 | 0.00 | 0.00 | 0.00 | 37 | 1011.7 |
| 20260506194716 | 55 | 135 | 2.0 | 2.0 | 0.00 | 0.00 | 0.00 | 38 | 1012.0 |
| 20260506194212 | 55 | 252 | 2.0 | 2.0 | 0.00 | 0.00 | 0.00 | 39 | 1011.9 |
| 20260506193710 | 56 | 336 | 4.0 | 5.0 | 0.00 | 0.00 | 0.00 | 37 | 1011.9 |
| 20260506193202 | 55 | 200 | 4.0 | 5.0 | 0.00 | 0.00 | 0.00 | 38 | 1011.8 |
| 20260506192658 | 55 | 245 | 1.0 | 1.0 | 0.00 | 0.00 | 0.00 | 40 | 1011.7 |
| 20260506192154 | 55 | 205 | 3.0 | 3.0 | 0.00 | 0.00 | 0.00 | 39 | 1012.0 |
| 20260506191651 | 55 | 189 | 3.0 | 3.0 | 0.00 | 0.00 | 0.00 | 41 | 1011.8 |
| 20260506191147 | 54 | 331 | 2.0 | 2.0 | 0.00 | 0.00 | 0.00 | 39 | 1011.5 |
| 20260506190645 | 55 | 195 | 2.0 | 3.0 | 0.00 | 0.00 | 0.00 | 38 | 1012.0 |
| 20260506190141 | 57 | 137 | 2.0 | 2.0 | 0.00 | 0.00 | 0.00 | 37 | 1012.0 |
| 20260506185638 | 54 | 145 | 0.0 | 1.0 | 0.00 | 0.00 | 0.00 | 40 | 1011.8 |
| 20260506185135 | 55 | 308 | 4.0 | 5.0 | 0.00 | 0.00 | 0.00 | 39 | 1011.8 |
| 20260506184632 | 55 | 253 | 3.0 | 5.0 | 0.00 | 0.00 | 0.00 | 39 | 1011.7 |
| 20260506184130 | 55 | 274 | 3.0 | 5.0 | 0.00 | 0.00 | 0.00 | 37 | 1011.8 |
| 20260506183626 | 53 | 299 | 2.0 | 3.0 | 0.00 | 0.00 | 0.00 | 39 | 1011.7 |
| 20260506183122 | 54 | 342 | 4.0 | 6.0 | 0.00 | 0.00 | 0.00 | 38 | 1011.8 |
| 20260506182620 | 56 | 141 | 3.0 | 3.0 | 0.00 | 0.00 | 0.00 | 38 | 1011.8 |
| 20260506182116 | 56 | 224 | 4.0 | 5.0 | 0.00 | 0.00 | 0.00 | 35 | 1011.8 |
| 20260506181615 | 57 | 323 | 7.0 | 13.0 | 0.00 | 0.00 | 0.00 | 36 | 1011.7 |
| 20260506181112 | 56 | 256 | 5.0 | 7.0 | 0.00 | 0.00 | 0.00 | 37 | 1011.9 |
| 20260506180608 | 55 | 190 | 1.0 | 1.0 | 0.00 | 0.00 | 0.00 | 40 | 1011.6 |
| 20260506180105 | 55 | 124 | 1.0 | 2.0 | 0.00 | 0.00 | 0.00 | 40 | 1011.7 |
| 20260506175601 | 55 | 195 | 2.0 | 3.0 | 0.00 | 0.00 | 0.00 | 39 | 1011.7 |
| 20260506175057 | 55 | 327 | 3.0 | 5.0 | 0.00 | 0.00 | 0.00 | 37 | 1011.6 |
| 20260506174556 | 55 | 48 | 3.0 | 5.0 | 0.00 | 0.00 | 0.00 | 40 | 1011.8 |
| 20260506174051 | 57 | 254 | 3.0 | 3.0 | 0.00 | 0.00 | 0.00 | 36 | 1011.7 |
| 20260506173549 | 55 | 304 | 1.0 | 3.0 | 0.00 | 0.00 | 0.00 | 41 | 1011.8 |
| 20260506173046 | 55 | 255 | 2.0 | 2.0 | 0.00 | 0.00 | 0.00 | 38 | 1011.7 |
| 20260506172544 | 54 | 224 | 2.0 | 2.0 | 0.00 | 0.00 | 0.00 | 39 | 1011.8 |
| 20260506172040 | 53 | 280 | 2.0 | 2.0 | 0.00 | 0.00 | 0.00 | 41 | 1011.9 |
| 20260506171537 | 53 | 138 | 0.0 | 1.0 | 0.00 | 0.00 | 0.00 | 43 | 1012.1 |
| 20260506171034 | 53 | 197 | 2.0 | 3.0 | 0.00 | 0.00 | 0.00 | 44 | 1012.1 |
| 20260506170532 | 54 | 232 | 1.0 | 1.0 | 0.00 | 0.00 | 0.00 | 41 | 1011.9 |
| 20260506170024 | 55 | 243 | 1.0 | 2.0 | 0.00 | 0.00 | 0.00 | 40 | 1012.0 |
| 20260506165522 | 56 | 188 | 2.0 | 2.0 | 0.00 | 0.00 | 0.00 | 39 | 1012.1 |
| 20260506165018 | 57 | 144 | 1.0 | 2.0 | 0.00 | 0.00 | 0.00 | 39 | 1012.1 |
| 20260506164515 | 54 | 292 | 1.0 | 2.0 | 0.00 | 0.00 | 0.00 | 42 | 1012.0 |
| 20260506164012 | 53 | 311 | 3.0 | 3.0 | 0.00 | 0.00 | 0.00 | 42 | 1012.1 |
| 20260506163508 | 54 | 349 | 3.0 | 3.0 | 0.00 | 0.00 | 0.00 | 41 | 1012.1 |
| 20260506163004 | 54 | 132 | 0.0 | 0.0 | 0.00 | 0.00 | 0.00 | 40 | 1012.0 |
| 20260506162501 | 56 | 69 | 1.0 | 2.0 | 0.00 | 0.00 | 0.00 | 40 | 1012.0 |
| 20260506161957 | 56 | 158 | 0.0 | 0.0 | 0.00 | 0.00 | 0.00 | 41 | 1012.2 |
| 20260506161455 | 55 | 120 | 2.0 | 3.0 | 0.00 | 0.00 | 0.00 | 41 | 1012.2 |
| 20260506160947 | 54 | 154 | 1.0 | 2.0 | 0.00 | 0.00 | 0.00 | 40 | 1012.1 |
| 20260506160444 | 55 | 239 | 4.0 | 5.0 | 0.00 | 0.00 | 0.00 | 39 | 1012.3 |
| 20260506155941 | 53 | 240 | 2.0 | 2.0 | 0.00 | 0.00 | 0.00 | 41 | 1012.2 |
| 20260506155438 | 53 | 140 | 1.0 | 1.0 | 0.00 | 0.00 | 0.00 | 42 | 1012.3 |
| 20260506153605 | 52 | 91 | 2.0 | 3.0 | 0.00 | 0.00 | 0.00 | 42 | 1012.1 |
| 20260506153103 | 52 | 141 | 0.0 | 0.0 | 0.00 | 0.00 | 0.00 | 43 | 1012.2 |
| 20260506152559 | 54 | 92 | 2.0 | 3.0 | 0.00 | 0.00 | 0.00 | 40 | 1012.3 |
| 20260506152057 | 55 | 291 | 1.0 | 2.0 | 0.00 | 0.00 | 0.00 | 40 | 1012.1 |
| 20260506151555 | 52 | 238 | 1.0 | 3.0 | 0.00 | 0.00 | 0.00 | 44 | 1012.1 |
| 20260506151052 | 53 | 257 | 2.0 | 2.0 | 0.00 | 0.00 | 0.00 | 43 | 1012.4 |
| 20260506150549 | 54 | 192 | 1.0 | 1.0 | 0.00 | 0.00 | 0.00 | 43 | 1012.0 |
| 20260506150046 | 55 | 124 | 0.0 | 0.0 | 0.00 | 0.00 | 0.00 | 44 | 1012.2 |
| 20260506145542 | 53 | 33 | 2.0 | 2.0 | 0.00 | 0.00 | 0.00 | 44 | 1012.0 |
| 20260506145040 | 53 | 178 | 1.0 | 2.0 | 0.00 | 0.00 | 0.00 | 42 | 1012.0 |
| 20260506144536 | 53 | 47 | 1.0 | 1.0 | 0.00 | 0.00 | 0.00 | 43 | 1012.1 |
| 20260506144034 | 53 | 185 | 1.0 | 1.0 | 0.00 | 0.00 | 0.00 | 43 | 1012.1 |
| 20260506143531 | 52 | 210 | 1.0 | 2.0 | 0.00 | 0.00 | 0.00 | 43 | 1011.9 |
| 20260506143030 | 50 | 114 | 0.0 | 0.0 | 0.00 | 0.00 | 0.00 | 48 | 1011.9 |
| 20260506142527 | 50 | 135 | 1.0 | 1.0 | 0.00 | 0.00 | 0.00 | 46 | 1011.8 |
| 20260506142025 | 52 | 295 | 2.0 | 3.0 | 0.00 | 0.00 | 0.00 | 47 | 1011.6 |
| 20260506141523 | 50 | 162 | 0.0 | 1.0 | 0.00 | 0.00 | 0.00 | 45 | 1011.9 |
| 20260506141021 | 50 | 123 | 0.0 | 0.0 | 0.00 | 0.00 | 0.00 | 49 | 1011.9 |
| 20260506140518 | 51 | 326 | 2.0 | 2.0 | 0.00 | 0.00 | 0.00 | 49 | 1011.6 |
| 20260506140015 | 49 | 123 | 0.0 | 0.0 | 0.00 | 0.00 | 0.00 | 50 | 1011.8 |
| 20260506135512 | 50 | 101 | 1.0 | 1.0 | 0.00 | 0.00 | 0.00 | 47 | 1011.6 |
| 20260506135008 | 48 | 122 | 0.0 | 0.0 | 0.00 | 0.00 | 0.00 | 55 | 1011.6 |
| 20260506134504 | 48 | 119 | 0.0 | 1.0 | 0.00 | 0.00 | 0.00 | 55 | 1011.4 |
| 20260506134001 | 48 | 25 | 2.0 | 2.0 | 0.00 | 0.00 | 0.00 | 56 | 1011.6 |
| 20260506133458 | 48 | 29 | 1.0 | 2.0 | 0.00 | 0.00 | 0.00 | 57 | 1011.2 |
| 20260506132954 | 47 | 198 | 0.0 | 1.0 | 0.00 | 0.00 | 0.00 | 59 | 1011.5 |
| 20260506132451 | 47 | 107 | 1.0 | 1.0 | 0.00 | 0.00 | 0.00 | 61 | 1011.4 |
| 20260506131949 | 46 | 123 | 0.0 | 0.0 | 0.00 | 0.00 | 0.00 | 61 | 1011.4 |
| 20260506131445 | 46 | 179 | 0.0 | 1.0 | 0.00 | 0.00 | 0.00 | 64 | 1011.2 |
| 20260506130942 | 45 | 144 | 1.0 | 1.0 | 0.00 | 0.00 | 0.00 | 64 | 1011.4 |
| 20260506130439 | 45 | 141 | 1.0 | 2.0 | 0.00 | 0.00 | 0.00 | 65 | 1011.2 |
| 20260506125937 | 45 | 34 | 1.0 | 1.0 | 0.00 | 0.00 | 0.00 | 66 | 1011.4 |
| 20260506125435 | 44 | 111 | 0.0 | 1.0 | 0.00 | 0.00 | 0.00 | 68 | 1011.5 |
| 20260506124933 | 43 | 71 | 1.0 | 1.0 | 0.00 | 0.00 | 0.00 | 68 | 1011.5 |
| 20260506124430 | 43 | 142 | 1.0 | 1.0 | 0.00 | 0.00 | 0.00 | 69 | 1011.6 |
| 20260506123928 | 42 | 125 | 1.0 | 2.0 | 0.00 | 0.00 | 0.00 | 71 | 1011.6 |
| 20260506123426 | 42 | 123 | 1.0 | 2.0 | 0.00 | 0.00 | 0.00 | 71 | 1011.2 |
| 20260506122923 | 42 | 83 | 0.0 | 0.0 | 0.00 | 0.00 | 0.00 | 72 | 1011.4 |
| 20260506122419 | 42 | 63 | 0.0 | 0.0 | 0.00 | 0.00 | 0.00 | 73 | 1011.2 |
| 20260506121918 | 41 | 71 | 1.0 | 1.0 | 0.00 | 0.00 | 0.00 | 73 | 1011.4 |
| 20260506121415 | 41 | 111 | 1.0 | 1.0 | 0.00 | 0.00 | 0.00 | 74 | 1011.2 |
| 20260506120912 | 41 | 107 | 0.0 | 0.0 | 0.00 | 0.00 | 0.00 | 74 | 1010.8 |
| 20260506120409 | 40 | 99 | 1.0 | 1.0 | 0.00 | 0.00 | 0.00 | 75 | 1011.0 |
| 20260506115906 | 40 | 149 | 0.0 | 1.0 | 0.00 | 0.00 | 0.00 | 75 | 1011.1 |
| 20260506115404 | 40 | 128 | 0.0 | 0.0 | 0.00 | 0.00 | 0.00 | 76 | 1010.8 |
| 20260506114903 | 39 | 120 | 0.0 | 1.0 | 0.00 | 0.00 | 0.00 | 76 | 1010.7 |
| 20260506114400 | 39 | 124 | 0.0 | 0.0 | 0.00 | 0.00 | 0.00 | 77 | 1010.6 |
| 20260506113859 | 39 | 51 | 1.0 | 1.0 | 0.00 | 0.00 | 0.00 | 77 | 1010.4 |
| 20260506113355 | 39 | 127 | 0.0 | 0.0 | 0.00 | 0.00 | 0.00 | 78 | 1010.3 |
| 20260506112851 | 38 | 0 | 0.0 | 1.0 | 0.00 | 0.00 | 0.00 | 78 | 1010.4 |
| 20260506112349 | 38 | 91 | 1.0 | 1.0 | 0.00 | 0.00 | 0.00 | 79 | 1010.1 |
| 20260506111846 | 38 | 115 | 0.0 | 0.0 | 0.00 | 0.00 | 0.00 | 80 | 1009.9 |
| 20260506111344 | 37 | 51 | 0.0 | 0.0 | 0.00 | 0.00 | 0.00 | 81 | 1009.9 |
| 20260506110842 | 37 | 120 | 0.0 | 0.0 | 0.00 | 0.00 | 0.00 | 82 | 1009.9 |
| 20260506110339 | 36 | 129 | 0.0 | 0.0 | 0.00 | 0.00 | 0.00 | 83 | 1009.8 |
| 20260506105836 | 36 | 129 | 0.0 | 0.0 | 0.00 | 0.00 | 0.00 | 84 | 1009.8 |
| 20260506105332 | 36 | 116 | 0.0 | 0.0 | 0.00 | 0.00 | 0.00 | 84 | 1010.0 |
| 20260506104830 | 36 | 118 | 0.0 | 0.0 | 0.00 | 0.00 | 0.00 | 86 | 1009.9 |
| 20260506104327 | 35 | 118 | 0.0 | 0.0 | 0.00 | 0.00 | 0.00 | 87 | 1010.1 |
| 20260506103824 | 35 | 136 | 0.0 | 0.0 | 0.00 | 0.00 | 0.00 | 87 | 1009.9 |
| 20260506103322 | 35 | 148 | 0.0 | 0.0 | 0.00 | 0.00 | 0.00 | 87 | 1010.0 |
| 20260506102819 | 35 | 132 | 0.0 | 0.0 | 0.00 | 0.00 | 0.00 | 87 | 1009.8 |
| 20260506102317 | 35 | 132 | 0.0 | 0.0 | 0.00 | 0.00 | 0.00 | 87 | 1009.8 |
| 20260506101814 | 35 | 135 | 0.0 | 0.0 | 0.00 | 0.00 | 0.00 | 87 | 1010.0 |
| 20260506101310 | 36 | 132 | 0.0 | 0.0 | 0.00 | 0.00 | 0.00 | 87 | 1009.9 |
| 20260506100808 | 35 | 132 | 0.0 | 0.0 | 0.00 | 0.00 | 0.00 | 87 | 1009.7 |
| 20260506100306 | 35 | 132 | 0.0 | 0.0 | 0.00 | 0.00 | 0.00 | 87 | 1010.0 |
| 20260506095804 | 35 | 132 | 0.0 | 0.0 | 0.00 | 0.00 | 0.00 | 87 | 1009.7 |
| 20260506095301 | 36 | 132 | 0.0 | 0.0 | 0.00 | 0.00 | 0.00 | 87 | 1009.7 |
| 20260506094758 | 36 | 132 | 0.0 | 0.0 | 0.00 | 0.00 | 0.00 | 87 | 1009.7 |
| 20260506094256 | 36 | 129 | 0.0 | 0.0 | 0.00 | 0.00 | 0.00 | 87 | 1009.5 |
| 20260506093755 | 36 | 122 | 0.0 | 0.0 | 0.00 | 0.00 | 0.00 | 87 | 1009.6 |
| 20260506093251 | 36 | 132 | 0.0 | 0.0 | 0.00 | 0.00 | 0.00 | 87 | 1009.4 |
| 20260506092749 | 36 | 129 | 0.0 | 0.0 | 0.00 | 0.00 | 0.00 | 86 | 1009.4 |
| 20260506092246 | 36 | 132 | 0.0 | 0.0 | 0.00 | 0.00 | 0.00 | 86 | 1009.3 |
| 20260506091743 | 36 | 129 | 0.0 | 0.0 | 0.00 | 0.00 | 0.00 | 86 | 1009.4 |
| 20260506091241 | 36 | 129 | 0.0 | 0.0 | 0.00 | 0.00 | 0.00 | 86 | 1009.2 |
| 20260506090739 | 36 | 129 | 0.0 | 0.0 | 0.00 | 0.00 | 0.00 | 86 | 1009.0 |
| 20260506090236 | 36 | 129 | 0.0 | 0.0 | 0.00 | 0.00 | 0.00 | 85 | 1009.1 |
| 20260506085732 | 37 | 129 | 0.0 | 0.0 | 0.00 | 0.00 | 0.00 | 84 | 1009.2 |
| 20260506085229 | 37 | 129 | 0.0 | 0.0 | 0.00 | 0.00 | 0.00 | 84 | 1009.0 |
| 20260506084726 | 37 | 129 | 0.0 | 0.0 | 0.00 | 0.00 | 0.00 | 84 | 1009.2 |
| 20260506084221 | 37 | 129 | 0.0 | 0.0 | 0.00 | 0.00 | 0.00 | 83 | 1008.7 |
| 20260506083719 | 38 | 130 | 0.0 | 0.0 | 0.00 | 0.00 | 0.00 | 82 | 1009.1 |
| 20260506083216 | 38 | 130 | 0.0 | 0.0 | 0.00 | 0.00 | 0.00 | 82 | 1008.9 |
| 20260506082714 | 38 | 130 | 0.0 | 0.0 | 0.00 | 0.00 | 0.00 | 81 | 1008.8 |
| 20260506082209 | 39 | 133 | 0.0 | 0.0 | 0.00 | 0.00 | 0.00 | 81 | 1009.0 |
| 20260506081707 | 39 | 129 | 0.0 | 0.0 | 0.00 | 0.00 | 0.00 | 80 | 1008.9 |
| 20260506081204 | 39 | 129 | 0.0 | 0.0 | 0.00 | 0.00 | 0.00 | 80 | 1009.0 |
| 20260506080702 | 39 | 129 | 0.0 | 0.0 | 0.00 | 0.00 | 0.00 | 80 | 1009.0 |
| 20260506080158 | 39 | 129 | 0.0 | 0.0 | 0.00 | 0.00 | 0.00 | 80 | 1009.1 |
| 20260506073143 | 39 | 125 | 0.0 | 0.0 | 0.00 | 0.00 | 0.00 | 79 | 1008.9 |
| 20260506072639 | 39 | 119 | 0.0 | 0.0 | 0.00 | 0.00 | 0.00 | 78 | 1009.2 |
| 20260506072137 | 40 | 136 | 0.0 | 0.0 | 0.00 | 0.00 | 0.00 | 78 | 1009.1 |
| 20260506071634 | 40 | 137 | 0.0 | 0.0 | 0.00 | 0.00 | 0.00 | 77 | 1009.1 |
| 20260506071132 | 40 | 137 | 0.0 | 0.0 | 0.00 | 0.00 | 0.00 | 77 | 1009.3 |
| 20260506070628 | 40 | 136 | 0.0 | 0.0 | 0.00 | 0.00 | 0.00 | 77 | 1009.1 |
| 20260506070126 | 41 | 136 | 0.0 | 0.0 | 0.00 | 0.00 | 0.00 | 76 | 1009.2 |
| 20260506062103 | 43 | 130 | 0.0 | 0.0 | 0.00 | 0.00 | 0.00 | 69 | 1009.2 |
| 20260506061558 | 42 | 102 | 0.0 | 0.0 | 0.00 | 0.00 | 0.00 | 69 | 1009.1 |
| 20260506061056 | 43 | 140 | 0.0 | 0.0 | 0.00 | 0.00 | 0.00 | 69 | 1009.3 |
| 20260506060555 | 43 | 126 | 0.0 | 0.0 | 0.00 | 0.00 | 0.00 | 69 | 1009.4 |